Showing default

IOD1_STARTICAL, 63212

Orbit data source: Space-Track

IOD1_STARTICAL, 63212 is a Spanish payload satellite in SSO that was launched on Sat, 15 Mar 2025 UTC via an FALCON 9 launch vehicle from the Air Force Western Test Range (AFWTR). Payload-class satellites include a variety of spacecraft equipped with specific instruments for various scientific and technological missions. These include communications satellites like Starlink; space stations such as the ISS; scientific satellites like the Hubble; Earth observation satellites from companies like Planet Labs, Umbra, and HawkEye 360; GPS; miniature CubeSats for education and research; and military/defense satellites.

Loading next visibility...
Identifier
63212, 2025-052C
Orbit
SSO
Country
Flag of ESES / SPN
Related business
Manufacturer
GOMSpace
Mission
Operational Commercial Communications
Bus & Motor
CUBESAT 16U, Unknown motor
Mass
20 kg wet, 20 kg dry
Launch date (UTC)
2025-03-15 (1 year ago)
Launch vehicle
FALCON 9
Launch site
Air Force Western Test Range (AFWTR)
Object type
Payload
Rocket body
Debris
Shape & HBR
Box + 2 Pan + 1 Ant, 0.3 m
Radar Cross Section
0.152 m², Medium (>0.1 m² and < 1m²)

Expand to show TLE details & history
Last TLE update: 8 hours ago

TLE from 8 hours ago
0 IOD1_STARTICAL
1 63212U 25052C   26175.18605358  .00055442  00000-0  84805-3 0  9993
2 63212  97.3815  77.0948 0004240 103.6927 256.4799 15.54200979 71576
Epoch: 2026-06-24T04:27Z
TLE epoch observation values (Epoch: 2026-06-24T04:27:55.029Z)
Latitude
-0.00001°
Longitude
97.76863°
Altitude
408.287 km
Speed
7.665 km/s
True Right ascension
05h 08m 22s
True Declination
0° 00' 00"
Sunlit
Object was in daylight at epoch
Visualization orbit readout
Latitude
Unknown
Longitude
Unknown
Altitude
Unknown
Speed
Unknown
Apparent Right ascension
Unknown
Apparent Declination
Unknown
Sunlit
N/A
Visualization observer readout
Local Sidereal Time
23:31:23
Azimuth
Unknown
Elevation
Unknown
Doppler factor
Unknown
Orbital elements
Apogee altitude
404.27 km
Perigee altitude
398.521 km
Semi-major axis
6,779.533 km
Eccentricity
0.00042
Inclination
97.3815°
RAAN
77.0948°
Arg. of periapsis
103.6927°
True anomaly
256.43267°
Mean anomaly
256.4799°
Eccentric anomaly
256.45628°
Mean motion
3.88815 °/min
Orbital period
92.59 mins
BSTAR
0.00084805
Loading maneuver chart data...
Computing Atmospheric mass density...
Loading historical data...
Loading historical data...
Loading historical data...
Loading historical data...
Loading historical data...
Loading historical data...
Loading historical data...

Documentation

Showing up to 5 results
|